Wind_Speed
19 19 19 20 20 21 22 23 25 26 27 28 29 30 31 32 33 33 34 35 35 36 36 37 38 39 40 41 43 44 45 46 48 49 50 51 52 53 53 55 56 57 58
20 20 21 22 23 24 25 26 27 28 29 30 31 32 32 32 33 33 33 34 34 34 35 36 37 38 39 41 43 44 45 46 48 49 51 51 51 52 53 55 57 58 59
21 22 23 24 25 26 27 28 29 30 30 31 31 31 30 30 31 31 32 32 33 34 35 36 38 39 40 41 43 45 46 47 49 51 53 54 54 54 54 55 57 59 61
22 23 25 26 27 28 29 30 30 31 31 30 30 30 30 30 31 31 32 33 34 35 36 37 38 40 41 43 45 47 48 50 52 54 55 57 59 60 58 58 58 60 62
24 25 26 27 28 29 30 30 31 31 30 30 30 30 30 31 32 33 33 34 35 37 38 39 41 43 45 46 48 51 53 54 56 58 60 61 64 65 67 65 65 65 65
25 26 27 28 29 30 30 30 30 30 30 30 30 31 31 32 33 34 35 36 37 39 41 43 44 46 48 51 53 55 57 60 62 64 66 68 69 70 72 73 72 72 72
27 28 28 29 30 30 30 30 31 31 31 31 31 32 33 34 34 35 37 38 40 42 44 46 48 51 54 56 58 61 63 65 67 69 71 73 75 76 78 79 79 80 79
28 29 30 30 30 30 31 31 32 32 32 32 33 34 35 36 38 39 41 43 44 47 49 51 54 56 59 61 64 66 68 70 73 74 76 78 80 81 83 84 85 86 85
30 31 31 31 31 32 32 33 33 33 34 35 36 37 38 40 41 43 45 47 49 51 54 56 59 62 64 67 69 71 73 76 77 79 81 83 84 85 87 88 89 91 91
32 32 33 33 33 34 34 35 35 36 36 37 39 40 41 43 45 47 49 51 54 56 59 62 64 66 69 72 74 76 78 80 81 83 84 85 87 88 89 91 92 93 95
33 34 35 35 36 36 36 37 37 38 39 40 42 43 45 46 49 51 53 56 58 61 64 66 69 71 74 77 79 80 82 83 84 86 87 88 89 90 90 91 92 93 93
35 36 37 37 38 38 38 38 39 40 41 43 45 46 48 50 52 55 58 60 63 66 68 71 73 76 78 80 82 83 85 86 87 88 88 88 89 89 88 88 88 87 87
38 38 39 39 39 39 39 40 41 42 44 46 47 49 52 54 56 59 62 65 67 70 73 76 78 80 82 83 85 86 87 88 88 87 87 86 85 83 81 80 79 77 76
39 39 40 40 40 40 41 42 43 45 47 49 51 53 55 58 60 63 66 69 72 75 77 79 81 83 84 86 87 88 87 87 86 85 83 81 78 75 73 71 69 68 67
40 40 40 41 41 42 43 44 46 48 50 52 54 56 59 62 65 67 70 73 76 78 80 82 83 85 86 87 87 86 85 83 81 78 75 72 69 66 64 63 61 61 62
41 41 42 42 43 44 45 47 49 50 53 55 57 60 63 66 68 71 74 76 79 81 82 84 85 86 86 85 84 83 81 78 74 70 66 62 60 58 57 57 57 57 56
42 42 42 43 44 46 47 49 51 53 55 58 60 63 66 69 72 74 77 79 81 82 83 85 85 84 83 81 79 77 74 70 66 61 57 55 53 52 52 52 53 52 52
42 43 44 45 46 48 49 51 53 56 58 61 64 67 70 72 75 77 79 81 82 83 84 84 83 81 78 76 73 70 66 62 57 54 52 49 48 48 48 48 48 47 47
42 44 45 46 48 50 51 53 56 59 61 64 66 69 72 75 77 79 81 82 83 83 83 81 79 76 73 70 67 63 59 54 51 48 46 45 44 44 45 45 43 42 42
43 44 46 48 50 52 54 56 59 61 64 66 69 72 75 77 79 80 82 82 83 82 80 77 75 71 67 64 61 58 53 50 47 45 44 43 42 42 43 42 41 40 39
44 45 47 49 52 54 56 59 61 64 66 69 71 74 76 78 80 81 82 82 82 80 77 74 70 66 63 59 56 52 49 46 44 42 41 41 41 41 41 40 39 37 36
46 47 49 51 54 56 59 61 64 66 69 71 73 75 77 79 80 81 81 81 79 76 72 68 64 61 58 54 51 48 47 45 44 42 40 39 39 39 38 38 37 37 36
47 49 51 53 56 59 62 64 66 69 71 72 74 76 77 79 80 81 80 78 75 72 68 63 59 56 52 49 47 46 44 44 43 41 39 38 37 37 36 36 36 36 35
49 51 53 56 58 61 64 66 69 71 73 74 75 77 78 79 79 79 77 74 70 66 63 59 55 51 47 45 44 43 42 41 40 39 37 36 36 36 36 35 35 35 35
51 54 56 58 61 63 66 68 71 72 73 75 77 78 79 79 78 76 73 69 65 62 59 55 52 48 44 42 42 40 39 38 37 36 35 35 35 35 35 34 33 33 34
54 56 59 61 63 66 68 70 72 73 75 77 78 79 79 78 76 72 67 63 60 57 54 52 49 46 43 41 40 38 38 37 36 35 34 33 33 33 32 32 32 32 33
Wind_Direction
288 290 291 292 292 292 292 293 293 293 293 292 291 290 289 289 288 287 286 285 285 284 284 283 283 283 282 282 282 281 280 280 279 278 277 276 276 276 275 275 274 274 273
290 291 292 292 292 292 293 294 294 294 293 292 292 291 290 289 289 288 287 287 286 286 285 285 285 285 284 284 283 282 282 281 281 280 279 278 277 276 276 275 275 275 274
290 291 290 291 291 292 293 294 294 294 294 293 293 292 291 290 289 289 288 287 287 287 287 287 287 287 286 286 285 285 284 284 283 283 283 282 280 278 276 276 276 276 275
288 289 289 290 291 292 294 295 295 294 294 293 293 292 292 291 290 290 290 289 288 288 288 288 289 289 289 288 287 287 287 287 286 285 285 284 284 283 280 278 276 275 275
287 288 289 290 291 292 293 294 294 293 293 292 291 291 291 291 291 291 290 290 290 290 291 291 291 291 291 290 290 289 289 288 288 287 286 285 285 285 284 282 280 278 276
287 288 289 290 291 291 292 292 292 292 292 291 291 291 292 292 291 291 291 291 292 292 293 293 293 292 292 292 291 291 290 290 289 288 287 286 285 284 284 283 282 280 278
288 289 290 291 291 291 291 292 292 291 291 291 291 291 292 292 291 291 291 292 292 293 293 293 293 293 293 293 292 292 291 290 289 289 288 287 286 285 284 283 282 280 279
289 291 292 291 290 291 292 292 291 291 291 291 290 290 291 291 292 292 292 293 294 294 294 294 294 294 294 294 293 293 292 291 291 290 289 288 287 285 284 283 282 281 279
290 291 291 290 290 291 291 291 291 291 290 290 290 290 291 292 293 293 294 295 295 295 295 296 296 296 295 295 294 294 293 292 291 291 289 288 287 286 284 283 282 281 279
290 291 290 290 290 291 291 291 290 290 289 289 290 291 292 293 294 294 295 296 296 297 297 297 297 297 297 296 296 295 294 294 293 291 290 289 288 286 285 283 282 280 279
291 291 290 289 290 291 291 291 290 290 290 290 291 292 293 294 295 296 297 298 298 298 299 299 299 299 298 298 297 297 296 295 294 293 292 290 289 287 286 284 283 281 280
291 290 289 289 290 291 291 291 291 291 291 291 293 294 295 296 297 298 299 299 300 300 300 301 301 300 300 299 299 298 297 296 295 294 293 292 290 289 288 286 284 283 281
290 290 289 289 290 291 292 292 292 293 293 294 295 296 297 298 299 300 300 301 302 302 303 303 303 302 302 301 300 299 299 298 297 296 294 293 292 290 289 287 285 284 283
289 289 289 289 290 291 292 293 294 294 295 296 297 298 299 300 301 301 302 303 304 304 305 304 304 304 303 303 302 301 300 299 298 297 296 295 293 291 289 288 286 285 284
288 288 288 289 290 291 293 293 294 295 296 298 299 300 301 302 302 303 304 305 306 306 306 306 305 305 305 304 303 302 301 300 299 298 296 295 293 291 289 288 287 285 285
287 288 288 289 290 292 293 294 295 297 298 299 300 301 302 303 304 305 306 307 307 307 307 307 307 306 306 305 304 303 302 301 300 298 296 294 292 291 289 288 288 287 286
287 287 288 289 291 292 294 295 296 298 299 300 301 302 303 305 306 306 307 308 308 308 308 308 308 307 307 305 305 304 303 302 301 299 296 294 293 291 290 289 288 288 287
285 286 287 289 291 292 294 296 297 299 300 301 303 304 305 306 307 308 308 309 309 309 309 309 309 308 307 306 305 304 303 302 300 298 297 295 293 292 291 291 290 289 287
285 286 288 290 291 293 295 297 298 300 301 303 304 305 306 307 308 309 309 310 310 310 310 310 309 308 308 307 306 304 303 301 300 298 297 296 295 294 293 293 291 290 288
285 287 289 291 293 294 296 298 299 301 302 304 305 306 307 308 309 310 310 311 311 311 311 310 310 309 308 307 306 304 303 301 300 298 298 296 295 295 295 294 292 291 289
287 288 290 292 294 296 298 299 301 302 304 305 306 307 308 309 310 310 311 311 312 311 311 310 310 309 308 307 306 303 302 301 300 299 297 296 295 295 295 293 292 292 290
288 290 292 294 296 298 299 301 302 303 304 306 307 308 309 310 311 311 312 312 312 311 311 310 309 308 307 306 304 303 302 301 300 299 297 296 295 295 294 293 292 291 290
290 292 294 296 298 299 301 302 303 304 305 307 308 309 310 311 312 312 313 313 312 311 310 309 308 308 306 304 303 302 301 300 300 299 298 296 296 296 295 293 292 291 291
292 294 295 297 299 300 301 303 304 305 306 308 309 310 311 312 312 313 313 312 311 310 310 309 308 307 306 304 303 302 300 300 300 299 298 297 296 297 296 294 292 291 291
294 295 297 298 300 301 302 304 305 306 307 308 310 311 312 312 313 313 313 312 311 310 309 308 307 307 305 304 304 303 301 300 300 299 297 296 296 296 297 295 293 292 291
295 297 298 300 301 302 303 305 306 307 308 309 311 311 312 312 313 312 311 311 310 309 309 307 307 307 306 306 305 304 303 302 301 300 298 297 297 297 297 296 295 294 293
Height
5823 5822 5821 5820 5819 5818 5816 5815 5813 5812 5810 5808 5806 5804 5802 5800 5797 5795 5793 5791 5789 5786 5784 5782 5780 5778 5776 5773 5771 5768 5766 5764 5761 5758 5757 5756 5753 5752 5750 5747 5744 5743 5740
5818 5817 5816 5815 5814 5812 5811 5809 5807 5805 5803 5801 5799 5796 5794 5792 5789 5787 5785 5782 5780 5778 5775 5773 5771 5768 5766 5763 5760 5757 5754 5752 5749 5746 5743 5742 5742 5739 5737 5733 5730 5728 5725
5813 5812 5811 5809 5808 5806 5804 5802 5800 5798 5796 5794 5791 5788 5786 5784 5782 5779 5777 5774 5772 5769 5767 5764 5761 5758 5756 5753 5749 5746 5743 5740 5737 5733 5730 5727 5726 5725 5724 5721 5717 5713 5710
5807 5806 5805 5803 5802 5800 5798 5796 5793 5791 5789 5786 5784 5781 5779 5776 5774 5771 5769 5766 5763 5760 5758 5755 5752 5748 5745 5742 5738 5735 5731 5728 5724 5720 5716 5712 5708 5705 5706 5706 5703 5699 5694
5802 5800 5799 5797 5795 5793 5791 5789 5786 5784 5781 5779 5776 5774 5771 5769 5766 5763 5760 5757 5755 5751 5748 5745 5742 5738 5735 5731 5727 5723 5718 5714 5710 5706 5701 5697 5692 5687 5684 5685 5684 5681 5678
5796 5794 5792 5790 5789 5787 5784 5782 5780 5777 5774 5772 5769 5766 5764 5761 5758 5755 5752 5749 5745 5742 5738 5735 5731 5727 5723 5719 5714 5710 5705 5700 5695 5690 5685 5680 5675 5671 5665 5662 5661 5659 5657
5789 5787 5786 5784 5782 5780 5777 5775 5772 5770 5767 5764 5761 5759 5756 5753 5750 5746 5743 5740 5736 5732 5728 5724 5720 5715 5710 5705 5700 5695 5690 5684 5678 5673 5667 5661 5656 5650 5644 5640 5637 5635 5634
5782 5781 5779 5777 5774 5772 5770 5767 5765 5762 5759 5756 5753 5750 5747 5744 5741 5737 5733 5729 5725 5721 5716 5712 5707 5701 5696 5690 5684 5679 5673 5666 5660 5653 5647 5640 5634 5627 5621 5616 5611 5609 5609
5775 5773 5771 5769 5767 5764 5762 5759 5757 5754 5751 5748 5744 5741 5738 5734 5731 5727 5722 5718 5714 5709 5704 5698 5692 5686 5680 5673 5667 5661 5654 5647 5639 5632 5625 5617 5611 5603 5596 5590 5584 5579 5578
5768 5766 5763 5761 5758 5756 5754 5751 5748 5745 5742 5738 5735 5731 5728 5724 5720 5715 5711 5706 5700 5695 5689 5683 5677 5670 5663 5655 5648 5640 5633 5624 5617 5609 5601 5593 5585 5577 5570 5563 5557 5550 5545
5760 5758 5755 5752 5750 5747 5745 5742 5739 5735 5732 5729 5725 5721 5717 5712 5708 5703 5697 5692 5686 5680 5673 5666 5659 5651 5643 5635 5626 5618 5610 5601 5593 5583 5575 5567 5558 5549 5542 5534 5527 5521 5514
5752 5749 5746 5743 5741 5738 5735 5732 5728 5725 5722 5718 5714 5709 5705 5700 5695 5689 5683 5677 5670 5663 5656 5648 5640 5631 5622 5613 5604 5595 5586 5576 5567 5558 5548 5540 5530 5522 5513 5505 5498 5492 5486
5743 5740 5737 5734 5731 5728 5725 5721 5718 5714 5710 5706 5702 5697 5692 5686 5681 5674 5668 5661 5653 5645 5637 5628 5619 5610 5600 5590 5580 5570 5561 5551 5541 5531 5521 5512 5503 5495 5486 5478 5472 5466 5461
5733 5730 5727 5724 5721 5718 5715 5711 5707 5703 5699 5694 5689 5684 5678 5672 5666 5659 5651 5644 5635 5627 5618 5608 5598 5588 5577 5566 5555 5545 5535 5525 5515 5504 5495 5486 5477 5470 5462 5456 5450 5445 5440
5723 5720 5717 5714 5711 5708 5704 5700 5695 5691 5686 5681 5676 5670 5664 5657 5650 5642 5634 5626 5616 5607 5597 5587 5576 5565 5554 5542 5530 5520 5510 5500 5491 5481 5471 5463 5455 5448 5442 5436 5432 5427 5422
5713 5710 5707 5704 5700 5697 5693 5688 5683 5679 5673 5668 5662 5655 5648 5641 5633 5625 5616 5607 5597 5587 5576 5565 5554 5542 5530 5518 5506 5494 5486 5477 5468 5460 5451 5444 5437 5431 5425 5419 5415 5410 5405
5702 5699 5696 5692 5689 5685 5681 5676 5671 5666 5660 5654 5647 5640 5633 5625 5616 5607 5598 5588 5577 5567 5555 5543 5531 5520 5508 5495 5483 5472 5463 5455 5447 5439 5433 5427 5421 5415 5410 5405 5400 5395 5391
5691 5688 5684 5681 5677 5673 5668 5663 5658 5652 5646 5640 5632 5624 5616 5608 5598 5589 5579 5568 5557 5546 5534 5522 5510 5498 5487 5474 5463 5453 5444 5437 5430 5423 5417 5411 5406 5401 5395 5391 5386 5382 5378
5680 5676 5673 5669 5665 5661 5656 5651 5645 5638 5632 5624 5616 5608 5599 5590 5580 5570 5560 5548 5537 5526 5513 5501 5489 5478 5467 5455 5445 5435 5428 5422 5415 5409 5403 5398 5393 5388 5382 5377 5373 5370 5366
5668 5665 5661 5657 5653 5648 5643 5637 5631 5624 5616 5609 5600 5591 5581 5572 5562 5551 5540 5528 5516 5505 5493 5482 5470 5458 5449 5439 5429 5419 5412 5407 5402 5397 5391 5385 5380 5375 5370 5365 5361 5357 5354
5656 5653 5649 5644 5640 5634 5629 5623 5616 5608 5601 5592 5583 5574 5564 5553 5543 5532 5520 5508 5497 5485 5474 5464 5453 5442 5432 5423 5414 5406 5399 5393 5389 5384 5379 5374 5369 5364 5359 5354 5350 5346 5342
5644 5640 5636 5631 5626 5620 5614 5608 5600 5593 5585 5576 5566 5556 5546 5535 5523 5512 5501 5488 5476 5465 5455 5445 5437 5427 5418 5409 5401 5394 5387 5381 5376 5372 5367 5362 5357 5353 5348 5343 5339 5335 5332
5632 5628 5623 5618 5612 5605 5598 5592 5584 5576 5567 5558 5549 5538 5528 5516 5504 5493 5481 5470 5458 5447 5438 5429 5421 5413 5405 5397 5389 5383 5376 5370 5364 5360 5355 5351 5346 5342 5338 5333 5329 5325 5321
5619 5614 5609 5604 5597 5590 5583 5575 5567 5559 5550 5541 5531 5520 5510 5499 5487 5475 5463 5451 5440 5430 5421 5413 5405 5399 5392 5385 5378 5372 5366 5360 5354 5349 5345 5340 5336 5331 5327 5323 5319 5315 5312
5605 5600 5595 5589 5582 5575 5567 5559 5550 5541 5533 5523 5513 5502 5492 5480 5469 5458 5446 5435 5425 5413 5405 5398 5391 5385 5380 5373 5366 5360 5355 5349 5344 5339 5335 5331 5326 5322 5317 5313 5309 5305 5302
5591 5586 5580 5573 5566 5559 5550 5541 5532 5523 5514 5505 5495 5484 5473 5462 5451 5441 5432 5421 5411 5402 5392 5384 5377 5371 5366 5361 5355 5349 5344 5339 5334 5329 5325 5321 5316 5312 5308 5304 5300 5296 5292